Location: Fort Wayne
(41.1310°N, 85.1290°W)
Time: 12:06:14
(UTC-05:00)

COSMOS 2406 - Visible Passes

Search period start: 11 February 2016 00:00
Search period end: 21 February 2016 00:00
Orbit: 845 x 864 km, 71.0° (Epoch: 10 February)

Date Brightness Start Highest point End Pass type
(mag) Time Alt. Az. Time Alt. Az. Time Alt. Az.
11 Feb 4.6 05:57:22 10° N 06:02:37 37° ENE 06:07:50 10° SE visible
11 Feb 5.1 20:50:24 10° SSW 20:51:49 18° SSW 20:51:49 18° SSW visible
12 Feb 4.6 05:46:08 10° N 05:51:24 38° ENE 05:56:38 10° SE visible
12 Feb 4.1 20:39:11 10° SSW 20:42:38 39° SSW 20:42:38 39° SSW visible
13 Feb 4.5 05:34:53 10° N 05:40:11 39° ENE 05:45:26 10° SE visible
13 Feb 3.0 20:27:57 10° SSW 20:33:33 81° SE 20:33:33 81° SE visible
13 Feb 6.0 22:15:04 10° W 22:15:46 12° W 22:15:46 12° W visible
14 Feb 4.5 05:23:40 10° N 05:28:58 39° ENE 05:34:14 10° SE visible
14 Feb 3.1 20:16:44 10° SSW 20:22:27 83° ESE 20:24:29 42° NNE visible
14 Feb 5.7 22:03:55 10° W 22:06:41 16° WNW 22:06:41 16° WNW visible
15 Feb 4.4 05:12:26 10° N 05:17:46 40° ENE 05:23:03 10° SE visible
15 Feb 4.0 06:57:04 10° NW 07:01:53 29° WSW 07:06:40 10° SSW visible
15 Feb 3.1 20:05:31 10° SSW 20:11:14 85° ESE 20:15:23 19° NNE visible
15 Feb 5.7 21:52:46 10° W 21:56:18 16° NW 21:57:34 15° NNW visible
16 Feb 4.4 05:01:15 10° N 05:06:33 41° ENE 05:11:52 10° SE visible
16 Feb 4.0 06:45:53 10° NW 06:50:39 29° WSW 06:55:25 10° SSW visible
16 Feb 3.1 19:54:18 10° SSW 20:00:01 86° ESE 20:05:44 10° NNE visible
16 Feb 5.7 21:41:37 10° W 21:45:06 16° NW 21:48:19 11° NNW visible
17 Feb 4.3 04:51:17 17° N 04:55:20 41° ENE 05:00:40 10° SE visible
17 Feb 4.0 06:34:41 10° NW 06:39:26 28° WSW 06:44:10 10° SSW visible
17 Feb 3.1 19:43:04 10° SSW 19:48:48 87° ESE 19:54:31 10° NNE visible
17 Feb 5.8 21:30:29 10° W 21:33:54 16° NW 21:37:20 10° N visible
18 Feb 4.3 04:41:37 27° N 04:44:07 42° ENE 04:49:29 10° SE visible
18 Feb 4.0 06:23:47 11° NW 06:28:12 27° WSW 06:32:54 10° SSW visible
18 Feb 3.2 19:31:52 10° SSW 19:37:35 89° ESE 19:43:18 10° NNE visible
18 Feb 5.8 21:19:20 10° W 21:22:42 16° NW 21:26:04 10° N visible
19 Feb 4.2 04:32:12 41° NE 04:32:55 43° ENE 04:38:17 10° SE visible
19 Feb 4.0 06:14:23 19° WNW 06:16:59 27° WSW 06:21:38 10° SSW visible
19 Feb 3.2 19:20:39 10° SSW 19:26:22 90° NW 19:32:05 10° NNE visible
19 Feb 5.9 21:08:12 10° W 21:11:30 15° NW 21:14:49 10° NNW visible
20 Feb 4.4 04:23:00 38° E 04:23:00 38° E 04:27:05 10° SE visible
20 Feb 4.0 06:05:12 26° W 06:05:45 26° WSW 06:10:23 10° SSW visible
20 Feb 3.3 19:09:26 10° SSW 19:15:09 88° WNW 19:20:53 10° NNE visible
20 Feb 5.9 20:57:04 10° W 21:00:18 15° NW 21:03:33 10° NNW visible
